Lexington Weather

Lexington, Massachusetts, USA

46°F
10/22/2019 2:20am 
  • Lexington Conditions: Mostly cloudy
  • Temperature: 46.4°F / 8.0°CWarmer 0.9°F than last hour.
  • Dew Point: 44.8°FIncreased 1.5°Fsince last hour.
  • Relative Humidity: 94%Increased 2.0% since last hour.
  • Wind: Calm, 10-min avg: Calm, gust: None
  • Barometer: 30.12 in Steady
  • Visibility: 9 miles
  • Rain Today: 0.00 in
  •   

Regional Weather Roundup
for Boston, MA

        
000
ASUS41 KBOX 210610
RWRBOX

REGIONAL WEATHER ROUNDUP
NATIONAL WEATHER SERVICE BOSTON/NORTON MA
200 AM EDT MON OCT 21 2019

NOTE:  "FAIR" INDICATES FEW OR NO CLOUDS BELOW 12,000 FEET WITH NO 
SIGNIFICANT WEATHER AND/OR OBSTRUCTIONS TO VISIBILITY.

MAZALL-210700-
EASTERN MASSACHUSETTS
  
CITY           SKY/WX    TMP DP  RH WIND       PRES   REMARKS
BOSTON         CLOUDY    56  47  71 E5        30.05S                  
6HR MIN TEMP:  56; 6HR MAX TEMP:  58; 6HR PCP: TRACE;                

BEVERLY        CLOUDY    52  49  89 N3        30.04S                  
LAWRENCE       CLOUDY    51  48  89 NE3       30.07S                  
BEDFORD        CLOUDY    54  49  83 CALM      30.03F                  
BLUE HILL      NOT AVBL                                               
NORWOOD        CLOUDY    55  50  83 CALM      30.04S                  
MARSHFIELD     CLOUDY    55  50  82 E6        30.03F                  
PLYMOUTH       LGT RAIN  53  49  86 NE7       30.02F                  
TAUNTON        MOCLDY    53  47  79 N3        30.02F                  
NEW BEDFORD    LGT RAIN  52  49  89 NE7       30.00F                  
$$

MAZALL-210700-
CAPE COD AND THE ISLANDS
  
CITY           SKY/WX    TMP DP  RH WIND       PRES   REMARKS
FALMOUTH       CLOUDY    52  48  87 NE5       30.02F                  
HYANNIS        MOCLDY    55  52  89 NE5       30.00F                  
CHATHAM        NOT AVBL                                               
PROVINCETOWN   CLOUDY    54  52  93 E5          N/A                   
NANTUCKET      LGT RAIN  54  51  90 E7        30.00F                  
MARTHAS VNYRD  LGT RAIN  56  54  93 NE9       30.00F                  
$$
 
MAZALL-210700-
CENTRAL AND WESTERN MASSACHUSETTS
  
CITY           SKY/WX    TMP DP  RH WIND       PRES   REMARKS
WORCESTER      CLOUDY    48  45  89 NE5       30.04F                  
6HR MIN TEMP:  48; 6HR MAX TEMP:  50; 6HR PCP:  0.02;                

FITCHBURG      CLOUDY    50  47  89 NW3       30.06S                  
ORANGE         CLOUDY    50  46  86 CALM      30.06S                  
SPRINGFIELD    CLOUDY    50  49  98 N5        30.03R                  
WESTFIELD      FAIR      49  47  93 N5        30.03S                  
NORTH ADAMS    FOG       40  38  93 CALM      30.06S VSB 3/4          
PITTSFIELD     FOG       41  40  96 CALM      30.03F VSB 1/2          
$$
 
RIZALL-210700-
RHODE ISLAND
  
CITY           SKY/WX    TMP DP  RH WIND       PRES   REMARKS
PROVIDENCE     CLOUDY    53  48  83 NE10      30.02F                  
6HR MIN TEMP:  53; 6HR MAX TEMP:  55; 6HR PCP: TRACE;                

NEWPORT        CLOUDY    53  49  86 NE8       30.00F                  
BLOCK ISLAND   LGT RAIN  54  50  86 E12G22    29.97F                  
SMITHFIELD     LGT RAIN N/A N/A N/A N7        30.03F                  
WESTERLY       CLOUDY    55  53  93 N7        29.99F                  
$$
 
CTZALL-210700-
CONNECTICUT
  
CITY           SKY/WX    TMP DP  RH WIND       PRES   REMARKS
BRADLEY INTL   MOCLDY    52  49  89 N9        30.02S                  
6HR MIN TEMP:  52; 6HR MAX TEMP:  53; 6HR PCP:  0.02;                

HARTFORD       CLOUDY    51  48  89 NW6       30.03S                  
BRIDGEPORT     CLOUDY    53  49  86 NE13      29.99S                  
DANBURY        MOCLDY    50  47  89 VRB3      30.02S                  
GROTON         MOCLDY    52  51  97 N10       29.99F                  
NEW HAVEN      CLOUDY    53  50  89 N9        30.00S                  
CHESTER        CLOUDY    50  48  93 NE7       29.99F                  
MERIDEN        CLOUDY    50  48  93 N5        30.02S                  
WILLIMANTIC    CLOUDY    50  48  93 NE8       30.02F                  
OXFORD         CLOUDY    49  47  93 NE7       30.01S                  
$$

MEZ002-015-021-024-NHZ003-005-008-011-012-014-VTZ005-008-210700-
NORTHERN NEW ENGLAND
  
CITY           SKY/WX    TMP DP  RH WIND       PRES   REMARKS
PORTLAND ME    CLOUDY    49  45  86 N3        30.06F                  
6HR MIN TEMP:  48; 6HR MAX TEMP:  51;                                

BANGOR ME      MOCLDY    47  44  90 CALM      30.08S                  
CONCORD NH     CLOUDY    48  47  96 NW3       30.07R                  
MANCHESTER NH  CLOUDY    51  49  92 NW3       30.05R                  
NASHUA NH      CLOUDY    50  50 100 NW5       30.07R                  
PORTSMOUTH NH  CLOUDY    50  48  93 CALM      30.05S                  
JAFFREY NH     CLOUDY    48  45  89 CALM      30.06R                  
KEENE NH       FOG       46  46 100 N5        30.07S VSB 1/4          
BURLINGTON VT  FAIR      41  39  93 CALM      30.06R                  
MT. WASHINGTON PTCLDY    37  27  65 W9          N/A  WCI  31          
$$

NYZ052-076-210700-
EASTERN NEW YORK
  
CITY           SKY/WX    TMP DP  RH WIND       PRES   REMARKS
ALBANY         FOG       46  43  89 NW3       30.07S VSB 1/4          
6HR MIN TEMP:  43; 6HR MAX TEMP:  49;                                

NEW YORK CITY  CLOUDY    54  49  83 N12       29.98R                  
6HR MIN TEMP:  53; 6HR MAX TEMP:  55; 6HR PCP:  0.02;                

$$
 
ANZALL-210700-
MARINE OBSERVATIONS
  
STATION/POSITION TIME  TEMP    WIND        PRES    VSBY  WAVE
                       AIR SEA DIR/SP/G                  HT/PER
                 (UTC) (F)     (DEG/KT/KT) (MB)    (MI)  (FT/S)
BOSTON BUOY      0550   56 57   70/  6/  8 1016.8F         1/ 8
BUZZARDS BAY     0500   55      40/ 17/ 18 1016.3F
NANTUCKET SOUND  0540      56              1016.2F
MASS BAY-STELLWA 0504   56 56  120/  6/  8 1017.5S  1 7/8  1/ 3
ISLE OF SHOALS   0500   55     130/  7/  8 1017.3R
S OF BLOCK IS    0530      60                N/A           3/ 5
$$

......................KEY.........................
  SKY/WX - SKY CONDITION/PRESENT WEATHER
  TMP    - TEMPERATURE IN FAHRENHEIT
  DWPT   - DEWPOINT IN FAHRENHEIT
  RH     - RELATIVE HUMIDITY IN PERCENT
  WIND   - DIRECTION AND SPEED IN MPH
  PRES   - MEAN SEA LEVEL PRESSURE IN INCHES OF HG
  WCI    - WIND CHILL INDEX
  VSB    - VISIBILITY IN MILES
  HX     - HEAT INDEX
  TC     - TEMPERATURE IN CELSIUS
  VRB    - VARIABLE WIND DIRECTION
  N/A    - NOT AVAILABLE
  
      

Other recent Regional Weather Roundups

Tue Oct 22, 2:10am

Tue Oct 22, 2:00am

Tue Oct 22, 1:10am

Tue Oct 22, 1:00am

Tue Oct 22, 12:10am

Tue Oct 22, 12:00am

Mon Oct 21, 11:10pm

Mon Oct 21, 11:00pm

Mon Oct 21, 10:10pm

Mon Oct 21, 10:01pm

Mon Oct 21, 9:10pm

Mon Oct 21, 9:00pm

Mon Oct 21, 8:10pm

Mon Oct 21, 8:00pm

Mon Oct 21, 7:10pm

Mon Oct 21, 7:01pm

Mon Oct 21, 6:10pm

Mon Oct 21, 6:01pm

Mon Oct 21, 5:10pm

Mon Oct 21, 5:01pm

Mon Oct 21, 4:10pm

Mon Oct 21, 4:00pm

Mon Oct 21, 3:10pm

Mon Oct 21, 3:01pm

Mon Oct 21, 2:10pm

Mon Oct 21, 2:00pm

Mon Oct 21, 1:10pm

Mon Oct 21, 1:01pm

Mon Oct 21, 12:10pm

Mon Oct 21, 12:00pm

Mon Oct 21, 11:10am

Mon Oct 21, 11:00am

Mon Oct 21, 10:10am

Mon Oct 21, 10:00am

Mon Oct 21, 9:10am

Mon Oct 21, 9:00am

Mon Oct 21, 7:10am

Mon Oct 21, 7:00am

Mon Oct 21, 6:10am

Mon Oct 21, 6:00am

Mon Oct 21, 5:10am

Mon Oct 21, 5:00am

Mon Oct 21, 4:10am

Mon Oct 21, 4:00am

Mon Oct 21, 3:10am

Mon Oct 21, 3:00am

Mon Oct 21, 2:01am

Mon Oct 21, 1:10am

Mon Oct 21, 1:00am

Mon Oct 21, 12:10am

Mon Oct 21, 12:00am

Sun Oct 20, 11:10pm

Sun Oct 20, 11:00pm

Sun Oct 20, 10:10pm

Sun Oct 20, 10:00pm

Sun Oct 20, 9:10pm

Sun Oct 20, 9:01pm

Sun Oct 20, 8:10pm

Sun Oct 20, 8:00pm

Sun Oct 20, 7:10pm

Sun Oct 20, 7:01pm

Sun Oct 20, 6:10pm

Sun Oct 20, 6:00pm

Sun Oct 20, 5:10pm

Sun Oct 20, 5:00pm

Sun Oct 20, 4:10pm

Sun Oct 20, 4:00pm

Sun Oct 20, 3:10pm

Sun Oct 20, 3:00pm

Sun Oct 20, 2:10pm

Sun Oct 20, 2:01pm

Sun Oct 20, 1:10pm

Sun Oct 20, 1:01pm

Sun Oct 20, 12:10pm

Sun Oct 20, 12:00pm

Sun Oct 20, 11:10am

Sun Oct 20, 11:00am

Sun Oct 20, 10:10am

Sun Oct 20, 10:00am

Sun Oct 20, 9:10am

Sun Oct 20, 9:00am

Sun Oct 20, 8:10am

Sun Oct 20, 8:00am

Sun Oct 20, 7:10am

Sun Oct 20, 7:00am

Sun Oct 20, 6:10am

Sun Oct 20, 6:00am

Sun Oct 20, 5:10am

Sun Oct 20, 5:00am

Sun Oct 20, 4:10am

Sun Oct 20, 4:00am

Sun Oct 20, 3:10am

Sun Oct 20, 3:00am

Sun Oct 20, 2:10am

Sun Oct 20, 2:00am

Sun Oct 20, 1:10am

Sun Oct 20, 1:00am

Sun Oct 20, 12:10am

Sun Oct 20, 12:00am

Sat Oct 19, 11:10pm

Sat Oct 19, 11:00pm

Sat Oct 19, 10:10pm

Sat Oct 19, 10:00pm

Sat Oct 19, 9:10pm

Sat Oct 19, 9:00pm

Sat Oct 19, 8:10pm

Sat Oct 19, 8:00pm

Sat Oct 19, 7:10pm

Sat Oct 19, 7:00pm

Sat Oct 19, 6:10pm

Sat Oct 19, 6:00pm

Sat Oct 19, 5:10pm

Sat Oct 19, 5:00pm

Sat Oct 19, 4:10pm

Sat Oct 19, 4:00pm

Sat Oct 19, 3:10pm

Sat Oct 19, 3:01pm

Sat Oct 19, 2:10pm

Sat Oct 19, 2:00pm

Sat Oct 19, 1:10pm

Sat Oct 19, 1:01pm

Sat Oct 19, 12:10pm

Sat Oct 19, 12:00pm

Sat Oct 19, 11:10am

Sat Oct 19, 11:01am

Sat Oct 19, 10:10am

Sat Oct 19, 10:00am

Sat Oct 19, 9:10am

Sat Oct 19, 9:00am

Sat Oct 19, 8:10am

Sat Oct 19, 8:00am

Sat Oct 19, 7:10am

Sat Oct 19, 7:00am

Sat Oct 19, 6:10am

Sat Oct 19, 6:00am

Sat Oct 19, 5:10am

Sat Oct 19, 5:00am

Sat Oct 19, 4:10am

Sat Oct 19, 4:00am

Sat Oct 19, 3:10am

Sat Oct 19, 3:00am

Meta data:

ID: 7315219f-f8d9-465f-b9b8-050f2b1c7b67
Link: https://api.weather.gov/products/7315219f-f8d9-465f-b9b8-050f2b1c7b67